Chattanooga, TN

9:19 PM EDT on September 25, 2017 (GMT -0400)
Lovell

Weather History for KCHA - February, 2012

Change the Weather History Date:

Sunday, February 12, 2012

  Actual Average Record
Temperature  
Mean Temperature 31 °F 44 °F  
Max Temperature 42 °F 54 °F 76 °F (1938)
Min Temperature 19 °F 33 °F 1 °F (1899)
Degree Days  
Heating Degree Days 34 21  
Month to date heating degree days 225 269  
Since 1 July heating degree days 1945 2314  
Moisture  
Dew Point 11 °F    
Average Humidity 47    
Maximum Humidity 67    
Minimum Humidity 27    
Precipitation  
Precipitation 0.00 in 0.17 in 3.35 in (1948)
Month to date precipitation 1.30 2.04  
Year to date precipitation 8.40 6.95  
Snow  
Snow 0.00 in 0.00 in - ()
Month to date snowfall T 0.3  
Since 1 July snowfall T 2.3  
Snow Depth 0.00 in    
Sea Level Pressure  
Sea Level Pressure 30.42 in    
Wind  
Wind Speed 7 mph (NNW)    
Max Wind Speed 24 mph    
Max Gust Speed 29 mph    
Visibility 10 miles    
Events      
T = Trace of Precipitation, MM = Missing Value Source: NWS Daily Summary

Daily Weather History Graph

Daily Weather History Graph

Search for Another Location

Airport or City:

Trip Planner

Search our weather history database for the weather conditions in past years. The results will help you decide how hot, cold, wet, or windy it might be!

Date:

Astronomy

Feb. 12, 2012 Rise Set
Actual Time 7:30 AM EST 6:20 PM EST
Civil Twilight 7:04 AM EST 6:46 PM EST
Nautical Twilight 6:34 AM EST 7:16 PM EST
Astronomical Twilight 6:05 AM EST 7:45 PM EST
Moon No Moon Rise 10:03 AM EST (2/12)
Length of Visible Light 11h 41m
Length of Day
10h 49m
Waning Gibbous, 72% of the Moon is Illuminated
Feb 12
Waning Gibbous
Feb 14
Last Quarter
Feb 21
New
Feb 29
First Quarter
Mar 8
Full

Hourly Weather History & Observations

Time (EST) Temp. Windchill Dew Point Humidity Pressure Visibility Wind Dir Wind Speed Gust Speed Precip Events Conditions
12:53 AM 21.9 °F 10.4 °F 8.1 °F 55% 30.45 in 10.0 mi NNW 11.5 mph - N/A   Scattered Clouds
1:53 AM 21.9 °F 12.5 °F 9.0 °F 58% 30.46 in 10.0 mi NW 8.1 mph - N/A   Mostly Cloudy
2:53 AM 21.9 °F 9.2 °F 9.0 °F 58% 30.46 in 10.0 mi NNW 13.8 mph - N/A   Partly Cloudy
3:53 AM 21.0 °F 8.1 °F 8.1 °F 57% 30.43 in 10.0 mi North 13.8 mph - N/A   Clear
4:53 AM 21.0 °F 12.4 °F 10.0 °F 63% 30.44 in 10.0 mi NW 6.9 mph - N/A   Clear
5:53 AM 19.9 °F 10.1 °F 10.0 °F 65% 30.44 in 10.0 mi NNW 8.1 mph - N/A   Clear
6:53 AM 19.9 °F 8.6 °F 9.0 °F 62% 30.45 in 10.0 mi North 10.4 mph - N/A   Clear
7:53 AM 19.9 °F 11.1 °F 9.0 °F 62% 30.49 in 10.0 mi North 6.9 mph - N/A   Scattered Clouds
8:53 AM 23.0 °F 12.4 °F 8.1 °F 53% 30.49 in 10.0 mi North 10.4 mph 17.3 mph N/A   Partly Cloudy
9:53 AM 26.1 °F 14.5 °F 9.0 °F 49% 30.48 in 10.0 mi North 13.8 mph - N/A   Clear
10:53 AM 28.9 °F 21.1 °F 8.1 °F 41% 30.48 in 10.0 mi NNE 8.1 mph - N/A   Clear
11:53 AM 30.9 °F - 8.1 °F 38% 30.47 in 10.0 mi Calm Calm - N/A   Clear
12:53 PM 34.0 °F 28.8 °F 9.0 °F 35% 30.45 in 10.0 mi SSE 5.8 mph - N/A   Clear
1:53 PM 37.0 °F - 7.0 °F 29% 30.41 in 10.0 mi Calm Calm - N/A   Clear
2:53 PM 39.0 °F 34.8 °F 9.0 °F 29% 30.40 in 10.0 mi WNW 5.8 mph - N/A   Clear
3:53 PM 41.0 °F 36.4 °F 10.9 °F 29% 30.40 in 10.0 mi NW 6.9 mph 19.6 mph N/A   Clear
4:53 PM 42.1 °F 36.6 °F 12.0 °F 29% 30.38 in 10.0 mi NNW 9.2 mph - N/A   Clear
5:53 PM 39.0 °F 34.0 °F 12.0 °F 33% 30.38 in 10.0 mi NNW 6.9 mph - N/A   Clear
6:53 PM 35.1 °F 30.1 °F 14.0 °F 42% 30.39 in 10.0 mi NNW 5.8 mph - N/A   Clear
7:53 PM 32.0 °F 26.4 °F 14.0 °F 48% 30.40 in 10.0 mi NNW 5.8 mph - N/A   Clear
8:53 PM 30.9 °F 25.2 °F 15.1 °F 52% 30.38 in 10.0 mi NNW 5.8 mph - N/A   Clear
9:53 PM 32.0 °F - 14.0 °F 48% 30.38 in 10.0 mi Calm Calm - N/A   Clear
10:53 PM 28.9 °F - 16.0 °F 58% 30.38 in 10.0 mi Calm Calm - N/A   Clear
11:53 PM 28.0 °F - 17.1 °F 63% 30.36 in 10.0 mi Calm Calm - N/A   Clear